Content
SEND FEEDBACK

Daily
Averages
Monthly
Summary
United States of America

MERIZO, GUAM


Home > North America > United States > Guam
Elevation: 10 feet     Latitude: 13 14N     Longitude: 144 39E

WEATHER
 
SELECT A DAY
Number of Records: 342,166;   Date Range: 1/1/95 - 8/12/14
 
SHARE

PRINT THIS DATA

[ ← Previous Day ]
WEATHER ALMANAC - DECEMBER 31, 2013
[ Next Day → ]
[ °C ]   °F
Weather ElementAverageHighLow
Temperature78.8 °F82.8 °F (12:58 pm)75.2 °F (6:53 am)
Dewpoint74.8 °F77 °F (3:33 pm)73.4 °F (4:58 am)
Humidity87.6 %100 % (6:53 am)76 % (12:58 pm)
Barometer29.88 in29.95 in (10:43 am)29.81 in (3:58 pm)
Wind Speed14.9 mph23 mph (11:53 pm)
Wind Gust28.8 mph (6:43 am)
Weather ElementAverage
Visibility9.6 mi
Wind DirectionNE (46.7 °)

Weather ElementTotal
Precipitation0.04 in
Cooling Degree Days14 (Base 65)
Growing Degree Days29 (Base 50)
Averaged from 61 records on December 31, 2013
WEATHER CONDITIONS BREAKOUT
WIND DIRECTION BREAKOUT
WEATHER BY HOUR - DECEMBER 31, 2013
[ °C ]   °F
Local TimeTemperatureDewpointHumidityBarometerVisibilityWind DirectionWind SpeedGust SpeedPrecipitationEventsConditions
1:58 AM78.1 °F74.1 °F88 %29.86 in10.0 miNE (40°)12.7 mphPartly Cloudy
2:28 AM78.8 °F75.2 °F89 %29.87 in10.0 miNE (40°)12.7 mphMostly Cloudy
2:33 AM78.8 °F75.2 °F89 %29.87 in10.0 miNE (40°)13.8 mphScattered Clouds
2:58 AM78.3 °F74.1 °F87 %29.83 in10.0 miNE (50°)12.7 mphScattered Clouds
3:58 AM78.4 °F74.1 °F87 %29.83 in10.0 miNE (40°)15.0 mphMostly Cloudy
4:58 AM78.1 °F73.4 °F85 %29.84 in10.0 miNE (40°)12.7 mphScattered Clouds
5:58 AM77.9 °F74.8 °F90 %29.86 in10.0 miNE (40°)16.1 mphScattered Clouds
6:03 AM78.8 °F75.2 °F89 %29.89 in10.0 miNE (40°)13.8 mphMostly Cloudy
6:08 AM77.0 °F75.2 °F94 %29.89 in10.0 miNE (40°)13.8 mphScattered Clouds
6:43 AM77.0 °F75.2 °F94 %29.91 in8.0 miNNE (30°)19.6 mph28.8 mphRainLight Rain
6:48 AM77.0 °F75.2 °F94 %29.91 in7.0 miNNE (30°)13.8 mph28.8 mphRainLight Rain
6:53 AM75.2 °F75.2 °F100 %29.91 in8.0 miNNE (30°)10.4 mphRainLight Rain
6:58 AM75.4 °F75.4 °F100 %29.88 in10.0 miNE (40°)6.9 mph0.01 inRainLight Rain
6:59 AM75.2 °F75.2 °F100 %29.91 in10.0 miNE (40°)8.1 mphMostly Cloudy
7:58 AM78.3 °F73.4 °F85 %29.91 in10.0 miNE (40°)17.3 mph0.00 inMostly Cloudy
8:58 AM80.2 °F75.9 °F87 %29.92 in10.0 miNE (40°)13.8 mphScattered Clouds
9:58 AM81.7 °F74.7 °F79 %29.92 in10.0 miNE (50°)18.4 mphPartly Cloudy
10:43 AM78.8 °F75.2 °F89 %29.95 in10.0 miEast (80°)16.1 mph25.3 mphMostly Cloudy
10:48 AM77.0 °F75.2 °F94 %29.95 in10.0 miEast (80°)18.4 mph24.2 mphMostly Cloudy
10:49 AM77.0 °F75.2 °F94 %29.95 in9.0 miENE (70°)18.4 mph24.2 mphLight Drizzle
10:54 AM77.0 °F75.2 °F94 %29.95 in6.0 miENE (70°)16.1 mph24.2 mphLight Drizzle
10:58 AM76.3 °F75.9 °F99 %29.91 in5.0 miENE (70°)12.7 mph0.01 inRainRain
11:07 AM77.0 °F75.2 °F94 %29.94 in8.0 miENE (60°)13.8 mphOvercast
11:22 AM77.0 °F75.2 °F94 %29.93 in10.0 miENE (60°)12.7 mph24.2 mphMostly Cloudy
11:27 AM78.8 °F75.2 °F89 %29.93 in10.0 miNE (50°)16.1 mph19.6 mphMostly Cloudy
11:32 AM78.8 °F73.4 °F83 %29.93 in10.0 miNE (50°)13.8 mph19.6 mphMostly Cloudy
11:58 AM81.0 °F74.8 °F82 %29.89 in10.0 miNE (50°)15.0 mph0.00 inScattered Clouds
12:58 PM82.8 °F74.7 °F76 %29.86 in10.0 miNNE (30°)15.0 mph24.2 mphPartly Cloudy
1:58 PM81.7 °F74.3 °F78 %29.84 in10.0 miNNE (30°)17.3 mphMostly Cloudy
2:58 PM81.9 °F75.4 °F81 %29.82 in10.0 miNE (40°)15.0 mphScattered Clouds
3:33 PM80.6 °F77.0 °F89 %29.84 in10.0 miNE (40°)12.7 mphMostly Cloudy
3:43 PM80.6 °F75.2 °F84 %29.84 in10.0 miNE (40°)16.1 mphMostly Cloudy
3:48 PM80.6 °F75.2 °F84 %29.84 in10.0 miNE (40°)13.8 mphScattered Clouds
3:58 PM81.0 °F74.7 °F81 %29.81 in10.0 miNE (40°)12.7 mph21.9 mphMostly Cloudy
4:08 PM80.6 °F73.4 °F79 %29.84 in10.0 miNE (40°)17.3 mphMostly Cloudy
4:13 PM80.6 °F73.4 °F79 %29.84 in10.0 miNE (40°)18.4 mphMostly Cloudy
4:18 PM80.6 °F73.4 °F79 %29.84 in10.0 miNE (40°)15.0 mphMostly Cloudy
4:23 PM80.6 °F73.4 °F79 %29.84 in10.0 miNE (40°)16.1 mphScattered Clouds
4:58 PM80.6 °F74.3 °F81 %29.81 in10.0 miNE (40°)16.1 mphMostly Cloudy
5:58 PM79.7 °F74.5 °F84 %29.83 in10.0 miNE (40°)13.8 mphScattered Clouds
6:18 PM78.8 °F75.2 °F89 %29.86 in10.0 miNE (40°)16.1 mph21.9 mphMostly Cloudy
6:33 PM78.8 °F75.2 °F89 %29.87 in10.0 miNE (40°)16.1 mphMostly Cloudy
6:38 PM78.8 °F75.2 °F89 %29.87 in10.0 miNE (50°)15.0 mphMostly Cloudy
6:53 PM78.8 °F75.2 °F89 %29.87 in10.0 miNE (50°)16.1 mphScattered Clouds
6:58 PM79.2 °F74.7 °F86 %29.84 in10.0 miNE (50°)17.3 mphScattered Clouds
7:23 PM78.8 °F75.2 °F89 %29.88 in10.0 miNE (40°)13.8 mphMostly Cloudy
7:28 PM78.8 °F75.2 °F89 %29.88 in10.0 miNE (50°)19.6 mph21.9 mphMostly Cloudy
7:38 PM78.8 °F73.4 °F83 %29.89 in10.0 miNE (50°)17.3 mphScattered Clouds
7:58 PM78.6 °F73.9 °F85 %29.86 in10.0 miNE (40°)11.5 mphPartly Cloudy
8:58 PM78.8 °F74.5 °F87 %29.88 in10.0 miNE (50°)16.1 mphScattered Clouds
9:38 PM78.8 °F75.2 °F89 %29.91 in10.0 miNE (50°)15.0 mphMostly Cloudy
9:48 PM78.8 °F73.4 °F83 %29.91 in10.0 miNE (50°)15.0 mphMostly Cloudy
9:53 PM78.8 °F73.4 °F83 %29.91 in10.0 miNE (50°)13.8 mph21.9 mphScattered Clouds
9:58 PM78.4 °F74.1 °F87 %29.88 in10.0 miNE (50°)15.0 mphScattered Clouds
10:03 PM78.8 °F75.2 °F89 %29.91 in10.0 miNE (50°)12.7 mphMostly Cloudy
10:13 PM78.8 °F73.4 °F83 %29.91 in10.0 miNE (50°)13.8 mphScattered Clouds
10:18 PM78.8 °F75.2 °F89 %29.91 in10.0 miNE (50°)12.7 mphMostly Cloudy
10:23 PM78.8 °F75.2 °F89 %29.91 in10.0 miNE (50°)12.7 mphScattered Clouds
10:58 PM78.3 °F75.9 °F92 %29.88 in10.0 miNE (50°)12.7 mph19.6 mphScattered Clouds
11:53 PM78.8 °F75.2 °F89 %29.91 in9.0 miNE (50°)23.0 mph28.8 mphRainLight Rain
11:58 PM77.0 °F75.2 °F94 %29.88 in4.0 miEast (80°)20.7 mph28.8 mph0.02 inRainLight Rain
Hourly data recorded from PGUA, located miles away from Merizo, Guam







STORIES FROM OUR PARTNERS